User: anonymous
Location: Karlovy Vary
(50.2170°N, 12.9000°E)
Time: 17:51:57
(UTC+02:00)
Language:

ISS - Orbit

View from above orbital plane
View from above orbital plane
View from above satellite
View from above satellite

Ground track
Ground track

The orbit data is extracted from the following two-line orbital elements,

1 25544U 98067A   14110.41779059  .00038898  00000-0  68384-3 0  1225
2 25544 051.6496 025.8846 0004136 313.3975 157.4294 15.50092098882369
Epoch (UTC): 20 April 2014 10:01:37
Eccentricity: 0.0004136
inclination: 51.6496°
perigee height: 413 km
apogee height: 419 km
right ascension of ascending node: 25.8846°
argument of perigee: 313.3975°
revolutions per day: 15.50092098
mean anomaly at epoch: 157.4294°
orbit number at epoch: 88236

The dashed part of the orbit path shows where the satellite is in the earth's shadow,  

DLR